This is the latest recevied weather packets stored in our database for station/object EB2EMZ-15. If no packets are shown the sender has not sent any weather packets the latest 10 day(s).
| Time | Temp. | Humidity | Pressure | Rain* | Wind** | Luminosity | Snow |
|---|---|---|---|---|---|---|---|
| 1777812323 | 20° C | 66% | 991.3 hPa | 0 mm | - | - | - |
| 1777812026 | 20° C | 67% | 991.4 hPa | 0 mm | - | - | - |
| 1777811724 | 20° C | 67% | 991.4 hPa | 0 mm | - | - | - |
| 1777811427 | 20° C | 66% | 991.5 hPa | 0 mm | - | - | - |
| 1777811123 | 20° C | 67% | 991.6 hPa | 0 mm | - | - | - |
| 1777810829 | 20° C | 66% | 991.6 hPa | 0 mm | - | - | - |
| 1777810524 | 20° C | 66% | 991.7 hPa | 0 mm | - | - | - |
| 1777810227 | 20.56° C | 68% | 991.7 hPa | 0 mm | - | - | - |
| 1777809923 | 20.56° C | 68% | 991.8 hPa | 0 mm | - | - | - |
| 1777809624 | 20° C | 68% | 992 hPa | 0 mm | - | - | - |
| 1777809323 | 20° C | 69% | 992 hPa | 0 mm | - | - | - |
| 1777809032 | 20° C | 69% | 992 hPa | 0 mm | - | - | - |
| 1777808723 | 20° C | 69% | 992.1 hPa | 0 mm | - | - | - |
| 1777808427 | 19.44° C | 68% | 992.1 hPa | 0 mm | - | - | - |
| 1777808124 | 19.44° C | 69% | 992 hPa | 0 mm | - | - | - |
| 1777807827 | 19.44° C | 68% | 992.3 hPa | 0 mm | - | - | - |
| 1777807523 | 19.44° C | 68% | 992.2 hPa | 0 mm | - | - | - |
| 1777807226 | 20° C | 66% | 992.2 hPa | 0 mm | - | - | - |
| 1777806923 | 20° C | 64% | 992.3 hPa | 0 mm | - | - | - |
| 1777806628 | 21.11° C | 63% | 992.3 hPa | 0 mm | - | - | - |
| 1777806323 | 21.11° C | 61% | 992.1 hPa | 0 mm | - | - | - |
| 1777806024 | 21.67° C | 59% | 991.7 hPa | 0 mm | - | - | - |
| 1777805723 | 22.22° C | 56% | 991.7 hPa | 0 mm | - | - | - |
| 1777805426 | 22.78° C | 54% | 991.5 hPa | 0 mm | - | - | - |
| 1777805123 | 23.33° C | 53% | 991.4 hPa | 0 mm | - | - | - |
* Rain latest hour (hover to see other rain measurements)
** Current wind speed in m/s (hover to see current wind gust speed)